IRIDIUM 151

Last updated on Sun Jun 21 2026 00:03:14 GMT+0000 (Coordinated Universal Time)

1 43074U 17083E 26171.43702801 .00000045 00000+0 90478-5 0 9990 2 43074 86.3968 320.7000 0002145 93.1387 267.0054 14.34217680444603
UTC large
Height (km)
Speed (km/s)
/
Latitude / Longitude
Inclination (degrees)
Orbital Period (minutes)
Azimuth
Elevation
Range (km)
Doppler Factor

Next 0 passes for location: London (51.5072 / 0.1276)

No passes found over London.
IRIDIUM 151